{"data":{"norad_id":61207,"intl_designator":"2024-171H","name":"STARLINK-11091 [DTC]","alt_names":[],"object_type":"PAYLOAD","status":"ACTIVE","operator":null,"country":"US","launch_date":"2024-09-20","launch_site_code":"AFWTR","launch_vehicle":null,"mission":null,"orbit_class":"UNKNOWN","rcs_meters":null,"size_class":null,"mass_kg":null,"dimensions":null,"purposes":["comms"],"wikipedia_slug":null,"has_3d_model":false,"image_url":null,"decayed_at":null,"tle_current":{"epoch":"2026-09-21T08:50:59.936064Z","epoch_age_seconds":117025,"freshness":"FRESH","line1":"1 61207U 24171H   26264.36874926 -.00000330  00000+0  21322-5 0  9997","line2":"2 61207  53.1585 291.5378 0001004  75.9327 284.1803 15.69705430115135","mean_motion":15.6970543,"eccentricity":0.0001004,"inclination_deg":53.1585,"raan_deg":291.5378,"arg_perigee_deg":75.9327,"mean_anomaly_deg":284.1803,"bstar":2.1322e-6,"rev_number":11513,"period_min":91.736957296504,"perigee_km":359.06334520867,"apogee_km":360.41631087574,"semimajor_km":6737.8768280422,"source":"CELESTRAK","updated_at":"2026-09-22T09:00:49.340019Z"}}}